"Pseudo-MPEC" for ST26G95

Created 2026 Jul 26 18:35:20 UT using Find_Orb

Click here for an explanation of pseudo-MPECs

 
 Astrometry: 
     ST26G95* C2026 07 24.24376318 19 24.968+34 06 08.31   ~7O6o 18.70GVNEOCPU68
     ST26G95  C2026 07 24.24710418 19 24.320+34 02 26.58   ~7O6o 18.70GVNEOCPU68
     ST26G95  C2026 07 24.25472418 19 22.758+33 53 54.03   ~7O6o 18.82GVNEOCPU74
     ST26G95  C2026 07 24.25689618 19 22.165+33 51 26.40   ~7O6o 18.82GVNEOCPU74
     ST26G95  C2026 07 24.30236018 19 12.603+32 58 40.86   ~7O7o 18.94GVNEOCPU74
     ST26G95  C2026 07 24.30563418 19 11.787+32 54 46.53   ~7O7o 18.94GVNEOCPU74
     ST26G95 1C2026 07 24.35778218 19 27.529+31 54 32.58   ~7OHK 19.70GVNEOCPT12
     ST26G95 1C2026 07 24.35799518 19 27.470+31 54 16.46   ~7OHK 19.51GVNEOCPT12
     ST26G95 1C2026 07 24.35818718 19 27.416+31 54 01.94   ~7OHK 19.79GVNEOCPT12
     ST26G95 1C2026 07 24.36228518 19 26.315+31 48 50.97   ~7OHK 19.65GVNEOCPT12
     ST26G95 1C2026 07 24.36249918 19 26.251+31 48 34.61   ~7OHK 19.76GVNEOCPT12
     ST26G95 1C2026 07 24.36271118 19 26.196+31 48 18.45   ~7OHK 19.95GVNEOCPT12
     ST26G95 1C2026 07 24.36426618 19 25.777+31 46 19.98   ~7OHK 19.85GVNEOCPT12
     ST26G95 1C2026 07 24.36447918 19 25.719+31 46 03.70   ~7OHK 20.13GVNEOCPT12
     ST26G95 1C2026 07 24.36469318 19 25.663+31 45 47.38   ~7OHK 19.70GVNEOCPT12
     ST26G95  C2026 07 24.41019718 18 54.049+30 40 44.34   ~7OEZ 18.80GVNEOCPU74
     ST26G95  C2026 07 24.41347118 18 53.668+30 36 15.72   ~7OEZ 18.80GVNEOCPU74
     ST26G95 KB2026 07 24.64322518 19 17.101+24 41 42.13   ~7OG5 18.7 GXNEOCPQ06
     ST26G95 KB2026 07 24.64745518 19 16.386+24 34 05.13   ~7OG5 19.0 GXNEOCPQ06
     ST26G95 KB2026 07 24.65168818 19 15.517+24 26 25.47   ~7OG5 18.3 GXNEOCPQ06
     ST26G95 1C2026 07 24.84862318 20 07.33 +17 42 43.4    ~7OL5 18.8 GVNEOCPK88
     ST26G95 1C2026 07 24.85436318 20 06.25 +17 29 28.2    ~7OL5 18.7 GVNEOCPK88
     ST26G95 KB2026 07 24.85921618 20 06.05 +17 17 50.4    ~7OLK 18.4 GVNEOCPG02
     ST26G95 KB2026 07 24.86318118 20 05.38 +17 08 33.2    ~7OLK 18.0 GVNEOCPG02
     ST26G95 0B2026 07 24.87142418 20 07.535+16 48 45.41   ~7OMZ 18.6 GWNEOCPG34
     ST26G95 0B2026 07 24.87197618 20 07.445+16 47 27.19   ~7OMZ 18.4 GWNEOCPG34
     ST26G95 KB2026 07 24.91240618 19 59.568+15 10 12.25   ~7OMK 18.5 GXNEOCP595
     ST26G95 KB2026 07 24.91503018 19 59.016+15 03 37.84   ~7OMK 19.1 GXNEOCP595
     ST26G95 KC2026 07 24.93803 18 19 56.06 +14 05 35.8    ~7ONZ       VNEOCP104
     ST26G95 KC2026 07 24.93900 18 19 55.88 +14 03 06.1    ~7ONZ 18.7 GVNEOCP104
     ST26G95 0C2026 07 24.94023818 20 06.475+13 58 12.90   ~7ON5 18.8 GWNEOCPJ95
     ST26G95 0C2026 07 24.94449118 20 05.724+13 47 11.62   ~7ON5 18.4 GWNEOCPJ95
     ST26G95 0C2026 07 24.94874018 20 04.942+13 36 07.42   ~7ON5 18.5 GWNEOCPJ95
     ST26G95 KB2026 07 25.49757818 21 39.203-18 36 09.67   ~7PCK 16.2 GXNEOCPQ06
     ST26G95 KB2026 07 25.49944718 21 38.627-18 44 11.34   ~7PCK 16.9 GXNEOCPQ06
     ST26G95 KB2026 07 25.50131718 21 38.150-18 52 14.36   ~7PCK 16.2 GXNEOCPQ06

Station data:
(104) San Marcello Pistoiese  (N44.064178 E10.803750)  Italy.  Observers P.
   Bacci, M. Maestripieri. Measurers P. Bacci, L. Tesi, G. Fagioli. 0.60-m
   reflector + CCD.
(595) Farra d'Isonzo  (N45.915731 E13.525780)  Italy.  Observers S. Aschi, E.
   Pettarin, G. Panterotto. Measurers S. Aschi, E. Pettarin. 0.40-m f/5.15
   reflector + CCD.
(G02) KYSUCE Observatory, Kysucke Nove Mesto  (N49.307313 E18.765390)
   Slovakia.  Observer M. Urbanik. 0.40-m f/4.4 reflector + CCD.
(G34) Oberfrauendorf  (N50.860002 E13.701500)  Germany.  Observer T. Felber.
   0.35-m f/6.3 Schmidt-Cassegrain + CCD.
(J95) Great Shefford  (N51.474969 W1.447003)  UK/England.  Observer P.
   Birtwhistle. 0.41-m f/6.3 Schmidt-Cassegrain + CCD.
(K88) GINOP-KHK, Piszkéstető  (N47.917453 E19.893670)  Hungary.  Observer K.
   Sárneczky. 0.60-m Schmidt + CCD.
(Q06) Tarui Observatory, Tarui  (N35.394791 E136.495470)  Japan.  Observer H.
   Watanabe. 0.35-m f/1.9 Schmidt-Cassegrain + CMO.
(T12) Mauna Kea-UH/Tholen NEO Follow-Up (2.24-m)  (N19.822991 W155.469434)
   US/Hawaii.  Observer R. Weryk. 2.24-m f/10.1 University of Hawaii
   reflector.
(U68) JPL SynTrack Robotic Telescope, Auberry  (N37.070387 W119.412990)
   US/California.  Observers N. Saini, C. Zhai, R. Trahan, M. Zhan, M. Shao.
   0.28-m f/2.2 Schmidt + CCD.
(U74) JPL SynTrack Robotic Telescope 2, Auberry  (N37.070341 W119.412800)
   US/California.  Observers N. Saini, C. Zhai, R. Trahan, M. Zhan, M. Shao.
   0.36-m f/2.2 Schmidt.

Orbital elements:  ST26G95
   Perihelion 2026 Aug 2.739344 +/- 0.00526 TT = 17:44:39.3 (JD 2461255.239344)
Epoch 2026 Jul 25.0 TT = JDT 2461246.5   Earth MOID: 0.0059   Ma: 0.0097
M 354.426770882 +/- 0.0059          (J2000 ecliptic)             AutoNEOCP
n   0.637717095 +/- 0.000298        Peri.  188.683693 +/- 0.0048
a   1.336751488 +/- 0.000416        Node   122.104881 +/- 0.00008
e   0.23735960 +/- 0.000235         Incl.   26.893329 +/- 0.010
P   1.546/564.503d         H 27.00  G  0.15   U  7.3
q 1.019460677 +/- 3.53e-6    Q 1.654042299 +/- 0.000829
From 36 observations 2026 July 24-25 (30.2 hr); mean residual 0".48
Residuals in arcseconds: 
260724 U68  1.3-  .49+    260724 T12  .04+  .02+    260724 G34  .10+  .13+    
260724 U68  .56-  1.4+    260724 T12  .03+  .01-    260724 G34  .21+  .41+    
260724 U74  .26+  .10+    260724 T12  .05+  .01+    260724 595  .21-  .12+    
260724 U74  1.3-  .87-    260724 U74  .02+  .57+    260724 595  .31-  .23-    
260724 U74  .88+  1.2-    260724 U74  .19-  1.0+    260724 104  .23-  .59-    
260724 U74  .76-  .38-    260724 Q06  .81-  .21-    260724 104  .16+  .04+    
260724 T12  .06+  .03-    260724 Q06  .60+  .42-    260724 J95  .02+  .14-    
260724 T12  .04+  .04-    260724 Q06  .34-  .44-    260724 J95  .17+  .03+    
260724 T12  .01+  .03-    260724 K88  .40-  .03+    260724 J95  .14-  .23+    
260724 T12  .07+  .04+    260724 K88  .13-  .33+    260725 Q06  .57+  .02-    
260724 T12  .01-  .03-    260724 G02  .65-  .25-    260725 Q06  .38-  .09+    
260724 T12  .02+  .05-    260724 G02  .32+  .94-    260725 Q06  .13+  .65-    

Ephemerides (geocentric):
Date (UTC) HH   RA             Dec           delta  r     elong  mag " sig PA
---- --------  ------------   ------------  ------ ------ -----  --- --------
2026 07 26 19  18 34 47.586   -81 59 35.08  .01226 1.0211 116.5 19.7 .594 178
2026 07 26 20  18 36 37.066   -82 53 33.19  .01256 1.0210 115.7 19.8 .620 178
2026 07 26 21  18 38 50.636   -83 44 58.33  .01286 1.0210 114.9 19.9 .644 177
2026 07 26 22  18 41 37.180   -84 33 58.97  .01316 1.0210 114.2 19.9 .667 176
2026 07 26 23  18 45 10.533   -85 20 42.67  .01347 1.0210 113.6 20.0 .688 175
2026 07 27 00  18 49 53.465   -86 05 15.83  .01378 1.0210 112.9 20.1 .709 174
2026 07 27 01  18 56 26.192   -86 47 43.21  .01409 1.0209 112.3 20.1 .728 173
2026 07 27 02  19 06 06.700   -87 28 06.48  .01440 1.0209 111.7 20.2 .747 170
2026 07 27 03  19 21 47.038   -88 06 20.46  .01472 1.0209 111.1 20.3 .764 166
2026 07 27 04  19 51 04.042   -88 41 59.38  .01503 1.0209 110.6 20.3 .781 159
2026 07 27 05  21 00 02.286   -89 13 10.14  .01535 1.0209 110.1 20.4 .797 142
2026 07 27 06  00 10 15.022   -89 29 56.56  .01567 1.0209 109.6 20.5 .812  94
2026 07 27 07  03 27 17.543   -89 16 13.45  .01600 1.0208 109.1 20.5 .826  45
2026 07 27 08  04 39 38.113   -88 49 32.37  .01632 1.0208 108.6 20.6 .840  27
2026 07 27 09  05 09 56.698   -88 20 57.07  .01664 1.0208 108.2 20.6 .852  19
2026 07 27 10  05 26 01.624   -87 52 33.27  .01697 1.0208 107.7 20.7 .865  15
2026 07 27 11  05 35 54.133   -87 24 51.13  .01730 1.0208 107.3 20.7 .877  12
2026 07 27 12  05 42 33.557   -86 57 59.40  .01762 1.0207 106.9 20.8 .888  11
2026 07 27 13  05 47 20.592   -86 32 00.24  .01795 1.0207 106.5 20.9 .899  10
2026 07 27 14  05 50 56.635   -86 06 53.35  .01828 1.0207 106.2 20.9 .909   9
2026 07 27 15  05 53 45.039   -85 42 37.40  .01862 1.0207 105.8 21.0 .919   8
2026 07 27 16  05 55 59.949   -85 19 10.64  .01895 1.0207 105.5 21.0 .928   7
2026 07 27 17  05 57 50.427   -84 56 31.15  .01928 1.0206 105.1 21.1 .938   7
2026 07 27 18  05 59 22.541   -84 34 36.95  .01961 1.0206 104.8 21.1 .946   7
2026 07 27 19  06 00 40.508   -84 13 26.08  .01995 1.0206 104.5 21.1 .955   6
2026 07 27 20  06 01 47.346   -83 52 56.65  .02028 1.0206 104.2 21.2 .963   6
2026 07 27 21  06 02 45.272   -83 33 06.83  .02062 1.0206 103.9 21.2 .970   6
2026 07 27 22  06 03 35.953   -83 13 54.88  .02096 1.0206 103.6 21.3 .978   5
2026 07 27 23  06 04 20.664   -82 55 19.14  .02129 1.0205 103.3 21.3 .985   5
2026 07 28 00  06 05 00.397   -82 37 18.01  .02163 1.0205 103.1 21.4 0.99   5
2026 07 28 01  06 05 35.938   -82 19 49.99  .02197 1.0205 102.8 21.4 1.00   5
2026 07 28 02  06 06 07.914   -82 02 53.67  .02231 1.0205 102.6 21.4 1.01   5
2026 07 28 03  06 06 36.834   -81 46 27.68  .02265 1.0205 102.3 21.5 1.01   5
2026 07 28 04  06 07 03.114   -81 30 30.75  .02299 1.0205 102.1 21.5 1.02   5
2026 07 28 05  06 07 27.098   -81 15 01.65  .02333 1.0204 101.9 21.6 1.02   4
2026 07 28 06  06 07 49.074   -80 59 59.24  .02367 1.0204 101.6 21.6 1.03   4
2026 07 28 07  06 08 09.281   -80 45 22.42  .02401 1.0204 101.4 21.6 1.03   4
2026 07 28 08  06 08 27.924   -80 31 10.16  .02435 1.0204 101.2 21.7 1.04   4
2026 07 28 09  06 08 45.177   -80 17 21.47  .02469 1.0204 101.0 21.7 1.04   4
2026 07 28 10  06 09 01.188   -80 03 55.42  .02504 1.0204 100.8 21.8 1.05   4
2026 07 28 11  06 09 16.087   -79 50 51.11  .02538 1.0203 100.6 21.8 1.05   4
2026 07 28 12  06 09 29.984   -79 38 07.71  .02572 1.0203 100.4 21.8 1.06   4
2026 07 28 13  06 09 42.976   -79 25 44.41  .02607 1.0203 100.2 21.9 1.06   4
2026 07 28 14  06 09 55.148   -79 13 40.45  .02641 1.0203 100.1 21.9 1.07   4
2026 07 28 15  06 10 06.575   -79 01 55.11  .02675 1.0203  99.9 21.9 1.07   4
2026 07 28 16  06 10 17.323   -78 50 27.69  .02710 1.0203  99.7 22.0 1.08   4
2026 07 28 17  06 10 27.449   -78 39 17.53  .02744 1.0203  99.6 22.0 1.08   4
2026 07 28 18  06 10 37.006   -78 28 24.01  .02779 1.0202  99.4 22.0 1.08   4